Home   Weather   Gerolstein   Past weeks

Flag for Germany Past Weather in Gerolstein, Rhineland-Palatinate, Germany — Yesterday and Last 2 Weeks

Now
39 °F

Overcast.


Feels Like: 35 °F
Forecast: 35 / 43 °F
Wind: 5 mph from Southwest

Location: Nuerburg-Barweiler

Current Time: Dec 8, 2016 at 5:29:38 pm

Latest Report: Dec 8, 2016 at 5:00 pm


Visibility: 11 mi

Pressure: 30.43 "Hg

Humidity: 74%

Dew Point: 31 °F

Location of GerolsteinLocation

Past Weather in Gerolstein — Graph

°F

Gerolstein Temperature Yesterday

Maximum temperature yesterday: 46 °F (at 3:00 pm)
Minimum temperature yesterday: 31 °F (at 5:00 am)
Average temperature yesterday: 38 °F

High & Low Weather Summary for the Past Weeks

 TemperatureHumidityPressure
High56 °F (Nov 24, 12:00 am)100% (Nov 27, 3:00 am)30.59 "Hg (Nov 27, 3:00 am)
Low22 °F (Nov 30, 5:00 am)33% (Nov 30, 6:00 pm)30.02 "Hg (Nov 23, 9:00 pm)
Average36 °F84%30.32 "Hg
* Reported Nov 23 3:00 pm — Dec 8 3:00 pm, Gerolstein, Weather by CustomWeather, © 2016

Note: Actual official high and low records may vary slightly from our data, if they occured in-between our weather recording intervals... More about our weather records

Advertising

Gerolstein Weather History for the Previous 24 Hours

Scroll right to see more
 ConditionsComfort  
Time TempWeatherWind HumidityBarometerVisibility
3:00 pm
Thu, Dec 8
41 °FOvercast.6 mph72%30.43 "Hg13 mi
2:00 pm41 °FOvercast.6 mph72%30.43 "Hg12 mi
12:00 pm41 °FOvercast.5 mph69%30.45 "Hg12 mi
11:00 am41 °FOvercast.2 mph68%30.48 "Hg15 mi
9:00 am38 °FOvercast.3 mph70%30.50 "Hg19 mi
8:00 am37 °FOvercast.3 mph71%30.50 "Hg22 mi
6:00 am37 °FChilly.5 mph76%30.48 "Hg40 mi
5:00 am38 °FOvercast.2 mph78%30.49 "Hg43 mi
3:00 am38 °FOvercast.3 mph79%30.52 "Hg40 mi
2:00 am38 °FOvercast.3 mph81%30.53 "Hg31 mi
12:00 am39 °FOvercast.3 mph76%30.54 "Hg22 mi
11:00 pm
Wed, Dec 7
38 °FOvercast.3 mph79%30.54 "Hg19 mi
9:00 pm42 °FOvercast.3 mph74%30.52 "Hg10 mi
8:00 pm42 °FOvercast.2 mph73%30.52 "Hg22 mi
7:00 pmN/APassing clouds.5 mphN/AN/A0 mi
6:00 pm42 °FOvercast.3 mph73%30.50 "Hg37 mi
5:00 pm42 °FOvercast.3 mph75%30.50 "Hg19 mi
Weather by CustomWeather, © 2016

See weather overviewHow to use our weather pages